Date String (YYYY-MM-DD hh:mm:ss) UTC,Instrument flags,Ambient pressure (hPa),Sample flow (lpm),Bypass flow (lpm),Sample temperature (°C),Ambient temperature (°C),ASC tube jacket temperature (°C),LED temperature (°C),Box temperature (°C),Sample RH (%),Span deviation,Mass concentration (μg/m³),Mass concentration (μg/m³),Mass concentration (μg/m³)
DateTimeUTC,F1_M11,P_M11,Q1_M11,Q2_M11,T1_M11,T2_M11,T3_M11,T4_M11,T5_M11,U1_M11,ZSPAN_M11,X0_M11,X2_M11,X1_M11
2022-04-17 07:00:00,,0820.3,5.01,0.00,26.9,26.0,00.0,35.8,28.7,10.4,0000.0,0034.18,0007.75,0003.98
2022-04-17 07:01:00,,0820.4,4.99,0.00,26.9,26.0,00.0,35.8,28.7,10.4,0000.0,0034.58,0007.87,0003.99
2022-04-17 07:02:00,,0820.3,5.01,0.00,26.9,26.0,00.0,35.8,28.7,10.4,0000.0,0035.00,0007.94,0004.00
2022-04-17 07:03:00,,0820.3,5.01,0.00,26.9,26.0,00.0,35.8,28.7,10.3,0000.0,0034.81,0008.04,0004.02
2022-04-17 07:04:00,,0820.3,4.99,0.00,26.9,26.0,00.0,35.8,28.7,10.3,0000.0,0033.56,0008.06,0004.03
2022-04-17 07:05:00,,0820.4,4.99,0.00,26.9,26.0,00.0,35.8,28.7,10.3,0000.0,0032.47,0008.06,0004.04
2022-04-17 07:06:00,,0820.4,5.00,0.00,26.9,26.0,00.0,35.8,28.7,10.3,0000.0,0031.06,0007.99,0004.05
2022-04-17 07:07:00,,0820.4,5.01,0.00,26.9,26.0,00.0,35.8,28.7,10.3,0000.0,0028.80,0007.99,0004.08
2022-04-17 07:08:00,,0820.3,4.98,0.00,26.9,26.0,00.0,35.8,28.7,10.3,0000.0,0028.15,0008.09,0004.10
2022-04-17 07:09:00,,0820.3,4.99,0.00,26.8,26.0,00.0,35.8,28.6,10.3,0000.0,0027.40,0008.13,0004.12
2022-04-17 07:10:00,,0820.3,5.02,0.00,26.8,25.9,00.0,35.8,28.6,10.3,0000.0,0027.38,0008.08,0004.14
2022-04-17 07:11:00,,0820.3,4.99,0.00,26.8,25.9,00.0,35.8,28.6,10.3,0000.0,0027.24,0008.07,0004.15
2022-04-17 07:12:00,,0820.3,5.00,0.00,26.8,25.8,00.0,35.8,28.6,10.3,0000.0,0026.71,0008.00,0004.16
2022-04-17 07:13:00,,0820.3,5.00,0.00,26.8,25.8,00.0,35.8,28.6,10.4,0000.0,0025.61,0007.95,0004.17
2022-04-17 07:14:00,,0820.4,4.99,0.00,26.8,25.8,00.0,35.7,28.6,10.4,0000.0,0026.05,0007.91,0004.18
2022-04-17 07:15:00,,0820.3,5.01,0.00,26.8,25.8,00.0,35.7,28.5,10.4,0000.0,0026.67,0007.87,0004.19
2022-04-17 07:16:00,,0820.4,4.99,0.00,26.7,25.7,00.0,35.7,28.5,10.5,0000.0,0026.22,0007.85,0004.19
2022-04-17 07:17:00,,0820.5,5.01,0.00,26.7,25.7,00.0,35.7,28.5,10.5,0000.0,0028.34,0007.94,0004.21
2022-04-17 07:18:00,,0820.4,5.01,0.00,26.7,25.7,00.0,35.7,28.5,10.5,0000.0,0029.25,0008.03,0004.22
2022-04-17 07:19:00,,0820.5,4.98,0.00,26.7,25.7,00.0,35.7,28.5,10.5,0000.0,0029.73,0007.97,0004.21
2022-04-17 07:20:00,,0820.6,5.02,0.00,26.7,25.7,00.0,35.7,28.4,10.5,0000.0,0030.22,0007.87,0004.20
2022-04-17 07:21:00,,0820.6,5.01,0.00,26.7,25.7,00.0,35.7,28.4,10.5,0000.0,0029.87,0007.88,0004.20
2022-04-17 07:22:00,,0820.7,4.99,0.00,26.6,25.6,00.0,35.6,28.4,10.5,0000.0,0029.58,0007.94,0004.23
2022-04-17 07:23:00,,0820.7,5.02,0.00,26.6,25.5,00.0,35.6,28.3,10.5,0000.0,0029.43,0007.95,0004.25
2022-04-17 07:24:00,,0820.7,5.00,0.00,26.6,25.5,00.0,35.6,28.3,10.5,0000.0,0030.57,0007.96,0004.28
2022-04-17 07:25:00,,0820.7,4.99,0.00,26.6,25.5,00.0,35.6,28.3,10.6,0000.0,0030.02,0007.92,0004.28
2022-04-17 07:26:00,,0820.6,5.00,0.00,26.6,25.5,00.0,35.6,28.3,10.6,0000.0,0029.07,0007.92,0004.27
2022-04-17 07:27:00,,0820.6,5.00,0.00,26.6,25.5,00.0,35.6,28.4,10.6,0000.0,0027.92,0007.90,0004.28
2022-04-17 07:28:00,,0820.6,4.99,0.00,26.6,25.6,00.0,35.6,28.4,10.6,0000.0,0028.05,0007.78,0004.26
2022-04-17 07:29:00,,0820.6,5.00,0.00,26.6,25.6,00.0,35.6,28.4,10.6,0000.0,0027.95,0007.71,0004.25
2022-04-17 07:30:00,,0820.6,5.00,0.00,26.6,25.6,00.0,35.5,28.4,10.6,0000.0,0030.09,0007.80,0004.25
2022-04-17 07:31:00,,0820.6,4.99,0.00,26.6,25.6,00.0,35.5,28.4,10.6,0000.0,0029.47,0007.85,0004.26
2022-04-17 07:32:00,,0820.5,5.01,0.00,26.6,25.6,00.0,35.5,28.4,10.6,0000.0,0030.36,0007.84,0004.28
2022-04-17 07:33:00,,0820.5,4.99,0.00,26.6,25.6,00.0,35.5,28.4,10.5,0000.0,0030.05,0007.74,0004.29
2022-04-17 07:34:00,,0820.5,5.00,0.00,26.5,25.6,00.0,35.5,28.3,10.5,0000.0,0029.54,0007.67,0004.30
2022-04-17 07:35:00,,0820.6,5.00,0.00,26.5,25.6,00.0,35.5,28.3,10.5,0000.0,0028.54,0007.72,0004.32
2022-04-17 07:36:00,,0820.6,4.99,0.00,26.5,25.6,00.0,35.5,28.3,10.5,0000.0,0029.84,0007.71,0004.35
2022-04-17 07:37:00,,0820.7,5.01,0.00,26.5,25.6,00.0,35.5,28.3,10.5,0000.0,0029.84,0007.68,0004.39
2022-04-17 07:38:00,,0820.8,5.00,0.00,26.5,25.5,00.0,35.5,28.3,10.6,-000.8,0029.97,0007.63,0004.43
2022-04-17 07:39:00,,0820.9,4.99,0.00,26.5,25.5,00.0,35.5,28.3,10.6,0000.0,0028.44,0007.69,0004.48
2022-04-17 07:40:00,,0820.9,5.02,0.00,26.5,25.5,00.0,35.5,28.3,10.6,-000.4,0027.56,0007.76,0004.54
2022-04-17 07:41:00,,0820.9,5.00,0.00,26.5,25.4,00.0,35.4,28.2,10.7,-000.1,0025.05,0007.65,0004.58
2022-04-17 07:42:00,,0820.8,5.00,0.00,26.5,25.5,00.0,35.4,28.3,10.7,0000.0,0025.40,0007.63,0004.63
2022-04-17 07:43:00,,0820.8,5.02,0.00,26.5,25.5,00.0,35.4,28.3,10.7,-000.1,0024.89,0007.56,0004.64
2022-04-17 07:44:00,,0820.8,4.99,0.00,26.5,25.5,00.0,35.4,28.3,10.7,0001.5,0025.07,0007.65,0004.66
2022-04-17 07:45:00,,0820.7,4.99,0.00,26.5,25.5,00.0,35.4,28.3,10.7,0001.0,0025.89,0007.71,0004.67
2022-04-17 07:46:00,,0820.7,5.02,0.00,26.5,25.5,00.0,35.4,28.3,10.7,0000.0,0027.05,0007.64,0004.66
2022-04-17 07:47:00,,0820.8,4.99,0.00,26.5,25.5,00.0,35.4,28.3,10.7,0000.0,0025.72,0007.56,0004.66
2022-04-17 07:48:00,,0820.8,4.99,0.00,26.5,25.5,00.0,35.4,28.3,10.7,-001.5,0025.91,0007.53,0004.65
2022-04-17 07:49:00,,0820.9,5.00,0.00,26.5,25.6,00.0,35.4,28.3,10.7,0002.9,0026.50,0007.57,0004.65
2022-04-17 07:50:00,,0820.9,5.01,0.00,26.5,25.6,00.0,35.4,28.3,10.7,-002.6,0026.84,0007.54,0004.64
2022-04-17 07:51:00,,0821.0,5.00,0.00,26.5,25.6,00.0,35.4,28.3,10.7,-000.6,0026.41,0007.47,0004.63
2022-04-17 07:52:00,,0821.0,4.99,0.00,26.5,25.6,00.0,35.4,28.3,10.7,0000.0,0026.91,0007.40,0004.63
2022-04-17 07:53:00,,0821.1,5.00,0.00,26.5,25.6,00.0,35.4,28.3,10.7,0000.0,0025.51,0007.30,0004.63
2022-04-17 07:54:00,,0821.2,5.01,0.00,26.5,25.6,00.0,35.4,28.3,10.7,0003.5,0025.02,0007.31,0004.63
2022-04-17 07:55:00,,0821.2,4.99,0.00,26.5,25.6,00.0,35.4,28.3,10.7,0000.9,0024.15,0007.18,0004.63
2022-04-17 07:56:00,,0821.2,5.00,0.00,26.5,25.5,00.0,35.4,28.3,10.7,0003.7,0023.51,0007.19,0004.62
2022-04-17 07:57:00,,0821.2,5.02,0.00,26.5,25.5,00.0,35.4,28.2,10.7,0003.5,0022.40,0007.23,0004.63
2022-04-17 07:58:00,,0821.3,5.00,0.00,26.4,25.5,00.0,35.4,28.2,10.8,0003.3,0022.94,0007.25,0004.63
2022-04-17 07:59:00,,0821.4,5.00,0.00,26.4,25.4,00.0,35.4,28.2,10.9,0004.4,0022.97,0007.23,0004.62
